Location: Borger
(52.9222°N, 6.7926°E)
Time: 11:50:33
(UTC+00:00)

Cosmos 1937 Rocket - Pass Details

Date: 15 May 2026
Orbit: 743 x 774 km, 74.0° (Epoch: 8 June)

Event Time Altitude Azimuth Distance (km) Brightness Sun altitude
Rises 22:19:52 0° 334° (NNW) 3,209 8.4 -16.5°
Reaches altitude 10° 22:22:15 10° 336° (NNW) 2,277 7.3 -16.6°
Maximum altitude 22:27:25 80° 63° (ENE) 762 3.4 -16.8°
Enters shadow 22:30:09 28° 148° (SSE) 1,368 4.3 -16.9°
